Regional Weather Roundup
Issued by NWS

Home | Current Version | Previous Version | Graphics & Text | Print | Product List | Glossary Off
Versions: 1 2 3 4 5 6 7 8 9 10 11 12 13 14 15 16 17 18 19 20 21 22 23 24 25 26 27 28 29 30 31 32 33 34 35 36 37 38 39 40 41 42 43 44 45 46 47 48 49 50

047
ASUS43 KMKX 202011
RWRWI

WISCONSIN REGIONAL WEATHER ROUNDUP
NATIONAL WEATHER SERVICE MILWAUKEE/SULLIVAN WI
200 PM CST MON FEB 20 2017

NOTE: "FAIR" INDICATES FEW OR NO CLOUDS BELOW 12,000 FEET WITH NO
SIGNIFICANT WEATHER AND/OR OBSTRUCTIONS TO VISIBILITY.

WIZ001-002-006>008-014>016-023>028-202100-
NORTHWEST WISCONSIN

CITY           SKY/WX    TMP DP  RH WIND       PRES   REMARKS
SUPERIOR ARPT  RAIN      36  36 100 NE9       29.74F WCI  29
ASHLAND        LGT RAIN  51  43  74 S10G18    29.75F
HAYWARD        LGT RAIN  48  44  86 SE12G25   29.71F FOG
SIREN          RAIN      46  45  94 SE14G23   29.70F
CUMBERLAND     RAIN      43  41  93 SE8       29.73R
RICE LAKE      RAIN      45  43  95 S7G18     29.76R
CHETEK         RAIN      45  44  97 SE15G22   29.76S
LADYSMITH      RAIN      47  45  91 SE13G21   29.78F
EAU CLAIRE     RAIN      49  48  97 SE8       29.75F FOG
MENOMONIE      RAIN      46  46  99 E7        29.74F VSB 1/2
NEW RICHMOND   RAIN      47  47  99 SE7       29.71F
OSCEOLA        LGT RAIN  47  47 100 SE9       29.72F
$$

WIZ003>005-009-010-017-018-202100-
NORTH CENTRAL WISCONSIN

CITY           SKY/WX    TMP DP  RH WIND       PRES   REMARKS
MANITOWISH WTR CLOUDY    48  39  70 SE12G20   29.84F
ARBOR VITAE    CLOUDY    52  40  64 SE12G18   29.84F
WOODRUFF       CLOUDY    52  40  64 SE12G18   29.84F
RHINELANDER    CLOUDY    51  40  65 SE15G31   29.88F
EAGLE RIVER    MOSUNNY   50  36  58 SE12G24   29.88F
LAND O LAKES   MOSUNNY   52  37  56 SE14G24   29.89F
PHILLIPS       LGT RAIN  48  41  77 SE10G17   29.81F
TOMAHAWK       CLOUDY    49  39  69 SE10G17   29.86F
MEDFORD        CLOUDY    46  40  80 SE13      29.82F
MERRILL        NOT AVBL
$$

WIZ029-030-035-036-043>047-202100-
CENTRAL WISCONSIN

CITY           SKY/WX    TMP DP  RH WIND       PRES   REMARKS
WAUSAU         CLOUDY    47  40  76 SE15      29.87F
MOSINEE        CLOUDY    48  43  81 SE13      29.89F
MARSHFIELD     CLOUDY    47  40  76 SE14      29.82F
STEVENS POINT  CLOUDY    48  42  78 E10G16    29.90F
WAUPACA        CLOUDY    55  44  65 SE13G18   29.94F
WAUTOMA        CLOUDY    58  50  75 SE15      29.91F
WISC RAPIDS    CLOUDY    56  49  77 SE12G20   29.87F
CAMP DOUGLAS   CLOUDY    58  51  78 SE15      29.83F
$$

WIZ011>013-019>022-031-037>040-048>050-202100-
NORTHEAST WISCONSIN

CITY           SKY/WX    TMP DP  RH WIND       PRES   REMARKS
ANTIGO         CLOUDY    44  38  80 SE20      29.93F
SHAWANO        CLOUDY    52  42  70 SE9G17    29.97F
OCONTO         MOSUNNY   48  34  58 SE12      30.01F
STURGEON BAY   CLOUDY    48  34  58 SE14      30.03F
GREEN BAY      CLOUDY    51  44  77 SE14      29.99F
MANITOWOC      CLOUDY    46  35  65 MISG      30.03F
APPLETON       PTSUNNY   52  41  66 SE16      29.95F
CLINTONVILLE   CLOUDY    50  41  71 SE12      29.96F
OSHKOSH        CLOUDY    53  45  74 SE14      29.95F
$$

WIZ032>034-041-042-053>061-202100-
SOUTHWEST WISCONSIN

CITY           SKY/WX    TMP DP  RH WIND       PRES   REMARKS
LA CROSSE      LGT RAIN  54  52  93 S10       29.79F FOG
SPARTA         CLOUDY    58  51  79 S17G26    29.83F THUNDER
VIROQUA        CLOUDY    53  50  89 S16       29.83F
BOSCOBEL       CLOUDY    60  50  69 MISG      29.86F
PRAIRIE DU CHI LGT RAIN  54  49  84 E7        29.84F
PLATTEVILLE    CLOUDY    58  53  83 SE12      29.87F
$$

WIZ056-057-062-063-064-067-068-202100-
SOUTH CENTRAL WISCONSIN

CITY           SKY/WX    TMP DP  RH WIND       PRES   REMARKS
REEDSBURG      CLOUDY    58  50  75 SE9       29.87F
BARABOO/DELLS  CLOUDY    57  48  72 SE14      29.88F
LONE ROCK      CLOUDY    61  49  64 SE12      29.87F
MINERAL POINT  CLOUDY    61  54  77 SE15G22   29.88F
MADISON        CLOUDY    61  49  64 S17       29.91F
MIDDLETON      MOSUNNY   63  51  64 S16G23    29.90F
WATERTOWN      CLOUDY    62  50  66 SE15G21   29.94F
MONROE         PTSUNNY   61  50  67 SE17G23   29.91F
JANESVILLE     PTSUNNY   66  50  55 SE20      29.93F
$$

WIZ051-052-058>065-066-070>072-202100-
SOUTHEAST WISCONSIN

CITY           SKY/WX    TMP DP  RH WIND       PRES   REMARKS
MILWAUKEE      PTSUNNY   56  44  64 SE15      30.03F
WAUKESHA       PTSUNNY   55  45  67 SE16      30.00F
MILWAUKEE/TIMM MOSUNNY   54  43  66 SE13G20   30.02F
RACINE         CLOUDY    52  42  69 SE12      30.04F
KENOSHA        CLOUDY    57  45  64 SE17      30.02F HAZE
FOND DU LAC    CLOUDY    54  44  69 SE18G28   29.95F
SHEBOYGAN      CLOUDY    46  37  71 SE14      30.04F
WEST BEND      CLOUDY    50  45  81 SE12      30.00F
JUNEAU         CLOUDY    60  50  69 SE13G23   29.95F
$$

LSZ147-162-202100-
LAKE SUPERIOR

STATION/POSITION TIME  TEMP    WIND        PRES    WAVE
                       AIR SEA DIR/SP/G            HT/PER
                 (UTC) (F)     (DEG/KT/KT) (MB)    (FT/S)
DEVILS ISLAND    2000   37      50/ 11/ 12 1008.4F
PORT WING        1940   35      30/ 10/ 14 1007.5F
SAXON HARBOR     1940   55     170/  9/ 15 1007.5F
$$

LMZ867-665-643>646-202100-
LAKE MICHIGAN

STATION/POSITION TIME  TEMP    WIND        PRES    WAVE
                       AIR SEA DIR/SP/G            HT/PER
                 (UTC) (F)     (DEG/KT/KT) (MB)    (FT/S)
CHAMBERS ISLAND  1940   47     120/  6/ 12 1017.6F
NORTHPORT PIER   1940   38     130/  2/  4 1017.9F
SISTER BAY       1935   51     130/ 12/ 18   N/A
KEWAUNEE LAKESHO 1948   40     160/  4/  5 1017.2F
SHEBOYGAN LAKESH 2000   40     180/ 10/ 11 1017.6F
PORT WASHINGTON  1940   42     120/  2/  4 1018.3F
MILWAUKEE LAKESH 1950   42     150/ 10/ 12   N/A
KENOSHA   LAKESH 2000   45     170/ 10/ 20 1016.6
$$

TC  - TEMPERATURE IN CELSIUS
VSB - VISIBILITY IN STATUTE MILES
WCI - WIND CHILL INDEX
HX  - HEAT INDEX





USA.gov is the U.S. government's official web portal to all federal, state and local government web resources and services.